| time (UTC) | temp F | wind direction | speed knots | gust knots | rain 1hr in | rain 24hr in | rain mn in | humidity % | barometer mb |
| 20260903055204 | 64 | 50 | 0.0 | 0.0 | 0.00 | 0.00 | 0.00 | 94 | 1018.2 |
| 20260903054204 | 64 | 50 | 0.0 | 0.0 | 0.00 | 0.00 | 0.00 | 94 | 1018.1 |
| 20260903053704 | 64 | 50 | 0.0 | 0.0 | 0.00 | 0.00 | 0.00 | 94 | 1018.1 |
| 20260903052703 | 64 | 50 | 0.0 | 0.0 | 0.00 | 0.00 | 0.00 | 94 | 1018.0 |
| 20260903050703 | 64 | 50 | 0.0 | 0.0 | 0.00 | 0.00 | 0.00 | 94 | 1017.9 |
| 20260903045703 | 64 | 50 | 0.0 | 0.0 | 0.00 | 0.00 | 0.00 | 94 | 1018.0 |
| 20260903043703 | 64 | 50 | 0.0 | 0.0 | 0.00 | 0.00 | 0.00 | 94 | 1018.3 |
| 20260903042203 | 64 | 50 | 0.0 | 0.0 | 0.00 | 0.00 | 0.00 | 94 | 1018.3 |
| 20260903041203 | 64 | 50 | 0.0 | 0.0 | 0.00 | 0.00 | 0.00 | 94 | 1018.4 |
| 20260903040203 | 64 | 50 | 0.0 | 0.0 | 0.00 | 0.00 | 0.00 | 94 | 1018.3 |
| 20260903035703 | 64 | 50 | 0.0 | 0.0 | 0.00 | 0.00 | 0.00 | 93 | 1018.5 |
| 20260903035204 | 64 | 50 | 0.0 | 0.0 | 0.00 | 0.00 | 0.00 | 93 | 1018.4 |
| 20260903034204 | 64 | 50 | 0.0 | 0.0 | 0.00 | 0.00 | 0.00 | 93 | 1018.5 |
| 20260903033703 | 65 | 50 | 0.0 | 0.0 | 0.00 | 0.00 | 0.00 | 93 | 1018.6 |
| 20260903032703 | 65 | 50 | 0.0 | 0.0 | 0.00 | 0.00 | 0.00 | 93 | 1018.8 |
| 20260903032203 | 65 | 50 | 0.0 | 0.0 | 0.00 | 0.00 | 0.00 | 94 | 1019.0 |
| 20260903031704 | 65 | 50 | 0.0 | 0.0 | 0.00 | 0.00 | 0.00 | 93 | 1019.0 |
| 20260903031203 | 65 | 50 | 0.0 | 0.0 | 0.00 | 0.00 | 0.00 | 93 | 1018.9 |
| 20260903030704 | 65 | 50 | 0.0 | 0.0 | 0.00 | 0.00 | 0.00 | 93 | 1018.9 |
| 20260903025703 | 65 | 50 | 0.0 | 0.0 | 0.00 | 0.00 | 0.00 | 93 | 1019.0 |
| 20260903025204 | 65 | 50 | 0.0 | 0.0 | 0.00 | 0.00 | 0.00 | 93 | 1019.1 |
| 20260903024703 | 65 | 50 | 0.0 | 0.0 | 0.00 | 0.00 | 0.00 | 93 | 1019.1 |
| 20260903024204 | 65 | 50 | 0.0 | 0.0 | 0.00 | 0.00 | 0.00 | 93 | 1019.1 |
| 20260903022204 | 65 | 50 | 0.0 | 0.0 | 0.00 | 0.00 | 0.00 | 93 | 1019.3 |
| 20260903021704 | 65 | 50 | 0.0 | 0.0 | 0.00 | 0.00 | 0.00 | 93 | 1019.2 |
| 20260903021203 | 65 | 50 | 0.0 | 0.0 | 0.00 | 0.00 | 0.00 | 93 | 1019.1 |
| 20260903020704 | 65 | 50 | 0.0 | 0.0 | 0.00 | 0.00 | 0.00 | 93 | 1019.2 |
| 20260903015704 | 65 | 50 | 0.0 | 0.0 | 0.00 | 0.00 | 0.00 | 93 | 1019.4 |
| 20260903015203 | 65 | 50 | 0.0 | 0.0 | 0.00 | 0.00 | 0.00 | 93 | 1019.6 |
| 20260903014204 | 65 | 50 | 0.0 | 0.0 | 0.00 | 0.00 | 0.00 | 93 | 1019.6 |
| 20260903013704 | 65 | 50 | 0.0 | 0.0 | 0.00 | 0.00 | 0.00 | 93 | 1019.6 |
| 20260903013203 | 65 | 50 | 0.0 | 0.0 | 0.00 | 0.00 | 0.00 | 92 | 1019.6 |
| 20260903012704 | 65 | 50 | 0.0 | 1.7 | 0.00 | 0.00 | 0.00 | 92 | 1019.3 |
| 20260903011204 | 65 | 188 | 0.0 | 0.0 | 0.00 | 0.00 | 0.00 | 92 | 1019.0 |
| 20260903010705 | 65 | 188 | 0.0 | 0.9 | 0.00 | 0.00 | 0.00 | 92 | 1019.1 |
| 20260903010205 | 65 | 103 | 0.0 | 0.0 | 0.00 | 0.00 | 0.00 | 92 | 1019.1 |
| 20260903005205 | 66 | 103 | 0.0 | 0.0 | 0.00 | 0.00 | 0.00 | 92 | 1019.2 |
| 20260903004705 | 66 | 103 | 0.0 | 0.9 | 0.00 | 0.00 | 0.00 | 92 | 1019.2 |
| 20260903004204 | 66 | 103 | 0.0 | 0.0 | 0.00 | 0.00 | 0.00 | 92 | 1019.1 |
| 20260903003705 | 66 | 102 | 0.0 | 0.9 | 0.00 | 0.00 | 0.00 | 92 | 1019.1 |
| 20260903002704 | 66 | 104 | 0.0 | 0.0 | 0.00 | 0.00 | 0.00 | 91 | 1019.2 |
| 20260903000205 | 67 | 53 | 0.0 | 0.0 | 0.00 | 0.00 | 0.00 | 91 | 1019.3 |
| 20260902235705 | 67 | 53 | 0.0 | 0.0 | 0.00 | 0.00 | 0.00 | 91 | 1019.5 |
| 20260902233705 | 67 | 53 | 0.0 | 0.9 | 0.00 | 0.00 | 0.00 | 91 | 1019.8 |
| 20260902233204 | 67 | 53 | 0.0 | 0.9 | 0.00 | 0.00 | 0.00 | 90 | 1020.0 |
| 20260902232705 | 67 | 53 | 0.0 | 0.0 | 0.00 | 0.00 | 0.00 | 90 | 1020.0 |
| 20260902232204 | 67 | 53 | 0.0 | 1.7 | 0.00 | 0.00 | 0.00 | 89 | 1019.9 |
| 20260902231204 | 68 | 57 | 0.0 | 0.9 | 0.00 | 0.00 | 0.00 | 89 | 1020.2 |
| 20260902225705 | 68 | 40 | 0.9 | 2.6 | 0.00 | 0.00 | 0.00 | 88 | 1020.0 |
| 20260902224204 | 68 | 15 | 0.0 | 1.7 | 0.00 | 0.00 | 0.00 | 88 | 1020.3 |
| 20260902221705 | 69 | 82 | 0.9 | 2.6 | 0.00 | 0.00 | 0.00 | 86 | 1020.4 |
| 20260902221204 | 69 | 118 | 0.0 | 1.7 | 0.00 | 0.00 | 0.00 | 87 | 1020.4 |
| 20260902220705 | 69 | 122 | 0.0 | 4.3 | 0.00 | 0.00 | 0.00 | 86 | 1020.3 |
| 20260902214705 | 70 | 70 | 0.0 | 0.9 | 0.00 | 0.00 | 0.00 | 86 | 1020.2 |
| 20260902214204 | 70 | 69 | 0.0 | 0.9 | 0.00 | 0.00 | 0.00 | 86 | 1020.2 |
| 20260902213705 | 70 | 67 | 0.0 | 0.9 | 0.00 | 0.00 | 0.00 | 86 | 1020.3 |
| 20260902213204 | 70 | 67 | 0.0 | 0.9 | 0.00 | 0.00 | 0.00 | 85 | 1020.3 |
| 20260902210704 | 70 | 256 | 0.9 | 2.6 | 0.00 | 0.01 | 0.00 | 84 | 1019.9 |
| 20260902210205 | 70 | 80 | 0.0 | 1.7 | 0.00 | 0.01 | 0.00 | 84 | 1019.9 |
| 20260902205204 | 70 | 65 | 0.0 | 0.9 | 0.00 | 0.01 | 0.00 | 83 | 1020.2 |
| 20260902204204 | 70 | 123 | 0.9 | 5.2 | 0.00 | 0.01 | 0.00 | 82 | 1020.3 |
| 20260902203705 | 70 | 153 | 0.9 | 2.6 | 0.00 | 0.01 | 0.00 | 85 | 1020.4 |
| 20260902203204 | 70 | 69 | 0.9 | 4.3 | 0.00 | 0.01 | 0.00 | 83 | 1020.4 |
| 20260902200704 | 71 | 244 | 0.0 | 2.6 | 0.00 | 0.01 | 0.00 | 84 | 1020.7 |
| 20260902200205 | 71 | 79 | 0.9 | 2.6 | 0.00 | 0.01 | 0.00 | 84 | 1020.9 |
| 20260902194204 | 70 | 53 | 0.9 | 2.6 | 0.00 | 0.01 | 0.00 | 82 | 1021.0 |
| 20260902192704 | 70 | 116 | 0.0 | 1.7 | 0.00 | 0.01 | 0.00 | 83 | 1021.1 |
| 20260902191704 | 71 | 108 | 0.9 | 4.3 | 0.00 | 0.01 | 0.00 | 83 | 1021.2 |
| 20260902190205 | 71 | 300 | 0.0 | 0.9 | 0.00 | 0.01 | 0.00 | 85 | 1021.3 |
| 20260902185704 | 71 | 307 | 0.0 | 5.2 | 0.00 | 0.01 | 0.00 | 84 | 1021.3 |
| 20260902183705 | 71 | 245 | 0.9 | 2.6 | 0.00 | 0.01 | 0.00 | 85 | 1021.2 |
| 20260902182204 | 70 | 57 | 1.7 | 4.3 | 0.00 | 0.01 | 0.00 | 84 | 1021.0 |
| 20260902180705 | 71 | 153 | 0.0 | 2.6 | 0.00 | 0.01 | 0.00 | 84 | 1021.2 |
| 20260902174205 | 71 | 66 | 0.0 | 0.0 | 0.00 | 0.01 | 0.00 | 84 | 1021.2 |
| 20260902173704 | 71 | 48 | 0.0 | 0.0 | 0.00 | 0.01 | 0.00 | 85 | 1021.2 |
| 20260902172704 | 70 | 82 | 0.0 | 0.0 | 0.00 | 0.01 | 0.00 | 85 | 1021.3 |
| 20260902171704 | 70 | 62 | 0.0 | 0.0 | 0.00 | 0.01 | 0.00 | 86 | 1021.3 |
| 20260902170704 | 70 | 141 | 0.0 | 0.0 | 0.00 | 0.01 | 0.00 | 87 | 1021.5 |
| 20260902170204 | 70 | 84 | 0.0 | 0.0 | 0.00 | 0.01 | 0.00 | 87 | 1021.5 |
| 20260902164704 | 70 | 65 | 0.0 | 0.0 | 0.00 | 0.02 | 0.00 | 87 | 1021.4 |
| 20260902163704 | 69 | 135 | 0.0 | 0.0 | 0.00 | 0.02 | 0.00 | 87 | 1021.4 |
| 20260902163204 | 69 | 48 | 0.0 | 0.0 | 0.00 | 0.02 | 0.00 | 88 | 1021.6 |
| 20260902161204 | 69 | 63 | 0.0 | 0.0 | 0.00 | 0.02 | 0.00 | 88 | 1021.8 |
| 20260902160704 | 69 | 63 | 0.0 | 0.0 | 0.00 | 0.02 | 0.00 | 88 | 1021.9 |
| 20260902152204 | 69 | 26 | 0.0 | 0.0 | 0.00 | 0.02 | 0.00 | 88 | 1022.3 |
| 20260902151704 | 69 | 23 | 0.0 | 0.0 | 0.00 | 0.02 | 0.00 | 88 | 1022.2 |
| 20260902150704 | 68 | 47 | 0.0 | 0.0 | 0.00 | 0.02 | 0.00 | 90 | 1022.5 |
| 20260902150205 | 68 | 34 | 0.0 | 0.0 | 0.00 | 0.02 | 0.00 | 89 | 1022.5 |
| 20260902145704 | 68 | 301 | 0.0 | 0.0 | 0.00 | 0.02 | 0.00 | 90 | 1022.5 |
| 20260902144704 | 67 | 84 | 0.0 | 0.0 | 0.00 | 0.02 | 0.00 | 92 | 1022.5 |
| 20260902135704 | 65 | 98 | 0.0 | 0.0 | 0.00 | 0.03 | 0.00 | 97 | 1021.7 |
| 20260902133204 | 65 | 32 | 0.0 | 0.0 | 0.00 | 0.04 | 0.00 | 98 | 1021.5 |
| 20260902131704 | 64 | 89 | 0.0 | 0.0 | 0.00 | 0.07 | 0.00 | 98 | 1021.6 |
| 20260902130704 | 64 | 70 | 0.0 | 0.0 | 0.00 | 0.09 | 0.00 | 98 | 1021.9 |
| 20260902130204 | 64 | 70 | 0.0 | 0.0 | 0.00 | 0.09 | 0.00 | 99 | 1021.9 |
| 20260902124704 | 64 | 62 | 0.0 | 0.0 | 0.00 | 0.14 | 0.00 | 98 | 1021.8 |
| 20260902124204 | 64 | 68 | 0.0 | 0.0 | 0.00 | 0.17 | 0.00 | 99 | 1021.7 |
| 20260902123704 | 64 | 68 | 0.0 | 0.0 | 0.00 | 0.19 | 0.00 | 99 | 1021.8 |
| 20260902122204 | 63 | 73 | 0.0 | 0.0 | 0.00 | 0.25 | 0.00 | 98 | 1021.9 |
| 20260902120704 | 63 | 5 | 0.0 | 0.0 | 0.00 | 0.28 | 0.00 | 99 | 1022.0 |
| 20260902120204 | 63 | 5 | 0.0 | 0.0 | 0.00 | 0.29 | 0.00 | 99 | 1022.1 |
| 20260902115704 | 63 | 5 | 0.0 | 0.0 | 0.00 | 0.29 | 0.00 | 99 | 1022.0 |
| 20260902114204 | 63 | 5 | 0.0 | 0.0 | 0.00 | 0.29 | 0.00 | 98 | 1022.1 |
| 20260902113704 | 63 | 5 | 0.0 | 0.0 | 0.00 | 0.29 | 0.00 | 98 | 1022.2 |
| 20260902112705 | 62 | 5 | 0.0 | 0.0 | 0.00 | 0.29 | 0.00 | 98 | 1022.1 |
| 20260902111704 | 62 | 5 | 0.0 | 0.0 | 0.00 | 0.29 | 0.00 | 98 | 1021.9 |
| 20260902105704 | 62 | 5 | 0.0 | 0.0 | 0.00 | 0.29 | 0.00 | 98 | 1021.7 |
| 20260902105204 | 62 | 5 | 0.0 | 0.0 | 0.00 | 0.29 | 0.00 | 98 | 1021.7 |
| 20260902103204 | 62 | 72 | 0.0 | 0.0 | 0.00 | 0.29 | 0.00 | 98 | 1021.2 |
| 20260902102204 | 62 | 72 | 0.0 | 0.0 | 0.00 | 0.29 | 0.00 | 98 | 1021.1 |
| 20260902101204 | 62 | 72 | 0.0 | 0.0 | 0.00 | 0.29 | 0.00 | 98 | 1021.2 |
| 20260902100204 | 62 | 72 | 0.0 | 0.0 | 0.00 | 0.29 | 0.00 | 98 | 1021.2 |
| 20260902095704 | 62 | 72 | 0.0 | 0.0 | 0.00 | 0.29 | 0.00 | 98 | 1021.1 |
| 20260902094204 | 62 | 72 | 0.0 | 0.0 | 0.00 | 0.29 | 0.00 | 98 | 1020.8 |
| 20260902092204 | 62 | 72 | 0.0 | 0.0 | 0.00 | 0.29 | 0.00 | 98 | 1020.7 |
| 20260902091704 | 62 | 72 | 0.0 | 0.0 | 0.00 | 0.29 | 0.00 | 98 | 1020.7 |
| 20260902090704 | 62 | 72 | 0.0 | 0.0 | 0.00 | 0.29 | 0.00 | 98 | 1020.5 |
| 20260902090204 | 62 | 72 | 0.0 | 0.0 | 0.00 | 0.29 | 0.00 | 98 | 1020.7 |
| 20260902084704 | 63 | 72 | 0.0 | 0.0 | 0.00 | 0.29 | 0.00 | 97 | 1020.7 |
| 20260902082204 | 63 | 72 | 0.0 | 0.0 | 0.00 | 0.29 | 0.00 | 98 | 1020.5 |
| 20260902081704 | 63 | 72 | 0.0 | 0.0 | 0.00 | 0.29 | 0.00 | 98 | 1020.6 |
| 20260902081203 | 63 | 72 | 0.0 | 0.0 | 0.00 | 0.29 | 0.00 | 98 | 1020.6 |
| 20260902075704 | 63 | 72 | 0.0 | 0.0 | 0.00 | 0.29 | 0.00 | 98 | 1020.9 |
| 20260902075204 | 63 | 72 | 0.0 | 0.0 | 0.00 | 0.29 | 0.00 | 98 | 1020.8 |
| 20260902074704 | 63 | 72 | 0.0 | 0.0 | 0.00 | 0.29 | 0.00 | 98 | 1020.9 |
| 20260902074204 | 63 | 72 | 0.0 | 0.0 | 0.00 | 0.29 | 0.00 | 98 | 1020.9 |
| 20260902073704 | 63 | 72 | 0.0 | 0.0 | 0.00 | 0.29 | 0.00 | 98 | 1020.9 |
| 20260902073204 | 63 | 72 | 0.0 | 0.0 | 0.00 | 0.29 | 0.00 | 98 | 1021.0 |
| 20260902072704 | 63 | 72 | 0.0 | 0.0 | 0.00 | 0.29 | 0.00 | 98 | 1021.0 |
| 20260902071704 | 63 | 72 | 0.0 | 0.0 | 0.00 | 0.29 | 0.00 | 98 | 1020.7 |
| 20260902070704 | 63 | 72 | 0.0 | 0.0 | 0.00 | 0.29 | 0.00 | 98 | 1020.6 |
| 20260902070203 | 63 | 72 | 0.0 | 0.0 | 0.00 | 0.29 | 0.00 | 98 | 1020.7 |
| 20260902065704 | 63 | 72 | 0.0 | 0.0 | 0.00 | 0.29 | 0.00 | 98 | 1020.5 |
| 20260902065204 | 63 | 72 | 0.0 | 0.0 | 0.00 | 0.29 | 0.00 | 98 | 1020.5 |
| 20260902064703 | 63 | 72 | 0.0 | 0.0 | 0.00 | 0.29 | 0.00 | 98 | 1020.5 |
| 20260902064204 | 63 | 72 | 0.0 | 0.0 | 0.00 | 0.29 | 0.00 | 98 | 1020.6 |
| 20260902063704 | 63 | 72 | 0.0 | 0.0 | 0.00 | 0.29 | 0.00 | 98 | 1020.6 |
| 20260902063204 | 63 | 72 | 0.0 | 0.0 | 0.00 | 0.29 | 0.00 | 98 | 1020.5 |
| 20260902062704 | 63 | 72 | 0.0 | 0.0 | 0.00 | 0.29 | 0.00 | 98 | 1020.6 |
| 20260902062204 | 63 | 72 | 0.0 | 0.0 | 0.00 | 0.29 | 0.00 | 98 | 1020.6 |
| 20260902060704 | 63 | 73 | 0.0 | 0.0 | 0.00 | 0.29 | 0.00 | 98 | 1020.6 |
| 20260902060204 | 63 | 73 | 0.0 | 0.0 | 0.00 | 0.29 | 0.00 | 98 | 1020.6 |
| 20260902055704 | 63 | 73 | 0.0 | 0.0 | 0.00 | 0.29 | 0.00 | 98 | 1020.6 |